Location: Unspecified
(0.0000°N, 0.0000°E)
Time: 21:53:21
(UTC+01:00)

Tiros 1 despin weight - All Passes

Search period start: 01 March 2015 00:00
Search period end: 11 March 2015 00:00
Orbit: 599 x 648 km, 48.2° (Epoch: 28 February)

Date Brightness Start Highest point End Pass type
(mag) Time Alt. Az. Time Alt. Az. Time Alt. Az.
01 Mar - 04:44:13 10° SW 04:48:37 63° NW 04:52:59 10° NNE visible
01 Mar - 15:13:08 10° N 15:16:05 17° NE 15:19:13 10° E daylight
01 Mar - 16:53:21 10° WNW 16:57:44 38° SW 17:02:06 10° SSE daylight
02 Mar - 03:21:45 10° S 03:25:26 26° SE 03:29:09 10° ENE night (unlit)
02 Mar - 05:03:34 10° W 05:07:01 21° NW 05:10:21 10° N visible
02 Mar - 15:30:04 10° NNW 15:34:32 45° NE 15:39:04 10° SE daylight
02 Mar - 17:13:34 10° W 17:16:14 14° SW 17:18:41 10° SSW daylight
03 Mar - 03:39:22 10° SW 03:43:49 77° SE 03:48:14 10° NE night (unlit)
03 Mar - 14:10:29 10° NE 14:11:08 10° NE 14:12:05 10° ENE daylight
03 Mar - 15:48:14 10° NW 15:52:52 62° SW 15:57:33 10° SSE daylight
04 Mar - 02:17:50 10° S 02:20:33 16° SE 02:23:25 10° E night (unlit)
04 Mar - 03:58:05 10° WSW 04:02:10 34° NW 04:06:10 10° NNE night (unlit)
04 Mar - 14:25:41 10° N 14:29:39 28° NE 14:33:44 10° ESE daylight
04 Mar - 16:07:33 10° WNW 16:11:18 23° SW 16:14:56 10° S daylight
05 Mar - 02:34:44 10° SSW 02:39:00 45° SE 02:43:15 10° NE night (unlit)
05 Mar - 04:18:37 10° WNW 04:20:39 12° NW 04:22:25 10° NNW night (unlit)
05 Mar - 14:43:21 10° NW 14:48:01 80° NE 14:52:45 10° SE daylight
06 Mar - 02:52:56 10° SW 02:57:20 58° NW 03:01:40 10° NNE night (unlit)
06 Mar - 13:21:40 10° N 13:24:44 18° NE 13:27:59 10° E daylight
06 Mar - 15:02:04 10° WNW 15:06:22 35° SW 15:10:41 10° SSE daylight
07 Mar - 01:30:20 10° S 01:34:08 27° SE 01:37:57 10° ENE night (unlit)
07 Mar - 03:12:21 10° W 03:15:43 20° NW 03:18:56 10° N night (unlit)
07 Mar - 13:38:40 10° NNW 13:43:08 48° NE 13:47:42 10° SE daylight
07 Mar - 15:22:26 10° W 15:24:52 13° SW 15:27:05 10° SSW daylight
08 Mar - 01:48:00 10° SW 01:52:30 82° SE 01:56:56 10° NE night (unlit)
08 Mar - 12:18:39 10° NE 12:19:45 11° NE 12:21:09 10° ENE daylight
08 Mar - 13:56:53 10° NW 14:01:28 58° SW 14:06:07 10° SSE daylight
09 Mar - 00:26:17 10° S 00:29:12 17° SE 00:32:15 10° E night (unlit)
09 Mar - 02:06:47 10° WSW 02:10:49 32° NW 02:14:47 10° NNE night (unlit)
09 Mar - 12:34:14 10° N 12:38:14 29° NE 12:42:22 10° ESE daylight
09 Mar - 14:16:16 10° W 14:19:53 21° SW 14:23:24 10° S daylight
10 Mar - 00:43:17 10° SSW 00:47:38 48° SE 00:51:56 10° NE night (unlit)
10 Mar - 02:27:31 10° WNW 02:29:17 12° NW 02:30:47 10° NNW night (unlit)
10 Mar - 12:51:56 10° NW 12:56:35 85° NE 13:01:17 10° SE daylight
10 Mar - 23:23:17 10° SE 23:24:13 11° SE 23:25:25 10° ESE night (unlit)
